Tracking 29487 objects as of 11-Sep-2024
HD Live streaming from Space Station
objects crossing your sky now

THOR ABLESTAR DEB

Track THOR ABLESTAR DEB now!
10-day predictions


NORAD ID: 4028
Int'l Code: 1961-015JQ
Perigee: 638.5 km
Apogee: 770.2 km
Inclination: 66.8 °
Period: 98.7 minutes
Semi major axis: 7075 km
RCS: 0.0031 m2 (small)
Launch date: June 29, 1961
Source: United States (US)
Launch site: AIR FORCE EASTERN TEST RANGE (AFETR)

Note: This is SATELLITE DEBRIS
Your satellite tracking list
Your tracking list is empty




NASA's NSSDC Master Catalog

Two Line Element Set (TLE):
1 04028U 61015JQ  24255.54000100  .00004517  00000-0  92965-3 0  9996
2 04028  66.7535 306.8400 0093136 136.2262 224.6284 14.58750045279772
Source of the keplerian elements: AFSPC